Location: Maddington
(51.2000°N, 1.9167°W)
Time: 11:06:30
(UTC+00:00)

NOSS 2-2 (E) - Pass Details

Date: 17 January 2021
Orbit: 465 x 1741 km, 63.3° (Epoch: 16 January)

Event Time Altitude Azimuth Distance (km) Brightness Sun altitude
Rises 20:33:40 0° 314° (NW) 2,931 7.7 -37.0°
Reaches altitude 10° 20:35:49 10° 323° (NW) 2,156 6.8 -37.3°
Enters shadow 20:36:32 14° 327° (NNW) 1,917 6.5 -37.4°
